Weather History for LEMG - January, 2014

Change the Weather History Date:

Friday, January 31, 2014

  Actual Average Record
Temperature  
Mean Temperature 58 °F -  
Max Temperature 65 °F 61 °F 68 °F (2002)
Min Temperature 50 °F 45 °F 37 °F (2000)
Degree Days  
Heating Degree Days 8    
Growing Degree Days 8 (Base 50)    
Moisture  
Dew Point 44 °F    
Average Humidity 64    
Maximum Humidity 82    
Minimum Humidity 34    
Precipitation  
Precipitation 0.00 in 0.10 in - ()
Sea Level Pressure  
Sea Level Pressure 29.98 in    
Wind  
Wind Speed 9 mph ()    
Max Wind Speed 15 mph    
Max Gust Speed 25 mph    
Visibility 6.8 miles    
Events Rain    
Averages and records for this station are not official NWS values.
T = Trace of Precipitation, MM = Missing Value Source: Averaged Metar Reports

Daily Weather History Graph

Daily Weather History Graph

Search for Another Location

Airport or City:

Trip Planner

Search our weather history database for the weather conditions in past years. The results will help you decide how hot, cold, wet, or windy it might be!

Date:

Astronomy

Jan. 31, 2014 Rise Set
Actual Time 8:20 AM CET 6:42 PM CET
Civil Twilight 7:53 AM CET 7:09 PM CET
Nautical Twilight 7:22 AM CET 7:40 PM CET
Astronomical Twilight 6:52 AM CET 8:11 PM CET
Moon 8:22 AM CET (1/31) 7:46 PM CET (1/31)
Length of Visible Light 11h 16m
Length of Day
10h 21m
New Moon, 0% of the Moon is Illuminated
Jan 31
New Moon
Feb 6
First Quarter
Feb 15
Full
Feb 22
Last Quarter
Mar 1
New

Hourly Weather History & Observations

Time (CET) Temp. Dew Point Humidity Pressure Visibility Wind Dir Wind Speed Gust Speed Precip Events Conditions
12:00 AM 55 °F 35 °F 34% 29.99 in - WNW 12.7 mph - -  
12:00 AM 53.6 °F 35.6 °F 51% 29.98 in 6.2 mi WNW 11.5 mph - N/A   Scattered Clouds
12:30 AM 53.6 °F 35.6 °F 51% 29.98 in 6.2 mi WNW 15.0 mph - N/A   Scattered Clouds
1:00 AM 54 °F 35 °F 37% 29.97 in 9 mi WNW 15.0 mph - -   Scattered Clouds
1:00 AM 53.6 °F 35.6 °F 51% 29.95 in 6.2 mi WNW 13.8 mph - N/A   Partly Cloudy
1:30 AM 51.8 °F 37.4 °F 58% 29.95 in 6.2 mi WNW 11.5 mph - N/A   Partly Cloudy
2:00 AM 53 °F 37 °F 43% 29.96 in - WNW 11.5 mph - -  
2:00 AM 51.8 °F 37.4 °F 58% 29.95 in 6.2 mi WNW 11.5 mph - N/A   Partly Cloudy
2:30 AM 51.8 °F 37.4 °F 58% 29.95 in 6.2 mi WNW 11.5 mph - N/A   Partly Cloudy
3:00 AM 53 °F 37 °F 43% 29.96 in - WNW 15.0 mph - -  
3:00 AM 51.8 °F 37.4 °F 58% 29.95 in 6.2 mi WNW 13.8 mph 25.3 mph N/A   Partly Cloudy
3:30 AM 51.8 °F 37.4 °F 58% 29.95 in 6.2 mi WNW 12.7 mph - N/A   Partly Cloudy
4:00 AM 52 °F 38 °F 49% 29.96 in 9 mi WNW 12.7 mph - -   Scattered Clouds
4:00 AM 51.8 °F 37.4 °F 58% 29.95 in 6.2 mi WNW 11.5 mph - N/A   Partly Cloudy
4:30 AM 51.8 °F 39.2 °F 62% 29.95 in 6.2 mi WNW 12.7 mph - N/A   Partly Cloudy
5:00 AM 52 °F 38 °F 48% 29.95 in - WNW 10.4 mph - -  
5:00 AM 50.0 °F 39.2 °F 66% 29.95 in 6.2 mi WNW 10.4 mph - N/A   Partly Cloudy
5:30 AM 50.0 °F 37.4 °F 62% 29.95 in 6.2 mi WNW 6.9 mph - N/A   Partly Cloudy
6:00 AM 51 °F 39 °F 53% 29.95 in - WNW 9.2 mph - -  
6:00 AM 50.0 °F 39.2 °F 66% 29.95 in 6.2 mi WNW 8.1 mph - N/A   Partly Cloudy
6:30 AM 50.0 °F 39.2 °F 66% 29.95 in 6.2 mi WNW 9.2 mph - N/A   Partly Cloudy
7:00 AM 52 °F 40 °F 53% 29.97 in 9 mi WNW 11.5 mph - -   Scattered Clouds
7:00 AM 51.8 °F 41.0 °F 67% 29.95 in 6.2 mi WNW 11.5 mph - N/A   Partly Cloudy
7:30 AM 50.0 °F 41.0 °F 71% 29.95 in 6.2 mi NW 12.7 mph - N/A   Partly Cloudy
8:00 AM 52 °F 42 °F 59% 29.99 in - WNW 13.8 mph - -  
8:00 AM 50.0 °F 42.8 °F 76% 29.98 in 6.2 mi WNW 13.8 mph - N/A   Scattered Clouds
8:30 AM 50.0 °F 42.8 °F 76% 29.98 in 6.2 mi WNW 10.4 mph - N/A   Scattered Clouds
9:00 AM 51 °F 44 °F 68% 29.99 in - West 11.5 mph - -  
9:00 AM 50.0 °F 42.8 °F 76% 29.98 in 6.2 mi West 10.4 mph - N/A   Light Drizzle
9:30 AM 50.0 °F 44.6 °F 82% 29.98 in 6.2 mi WNW 9.2 mph - N/A Rain Light Rain
10:00 AM 53 °F 45 °F 65% 30.01 in 12 mi WNW 8.1 mph - - Rain Light Rain
10:00 AM 51.8 °F 44.6 °F 76% 30.01 in 6.2 mi WNW 8.1 mph - N/A   Scattered Clouds
10:30 AM 53.6 °F 44.6 °F 72% 30.01 in 6.2 mi WNW 5.8 mph - N/A Rain Light Rain
11:00 AM 55 °F 45 °F 60% 30.01 in - NW 5.8 mph - -  
11:00 AM 53.6 °F 46.4 °F 77% 30.01 in 6.2 mi NW 5.8 mph - N/A   Scattered Clouds
11:30 AM 55.4 °F 46.4 °F 72% 30.01 in 6.2 mi WNW 5.8 mph - N/A   Scattered Clouds
12:00 PM 58 °F 45 °F 53% 30.01 in - WNW 8.1 mph - -   Unknown Precipitation
12:00 PM 57.2 °F 46.4 °F 67% 30.01 in 6.2 mi WNW 8.1 mph - N/A   Scattered Clouds
12:30 PM 59.0 °F 46.4 °F 63% 29.98 in 6.2 mi WNW 10.4 mph - N/A   Scattered Clouds
1:00 PM 60 °F 47 °F 52% 30.00 in 12 mi WNW 13.8 mph - -   Partly Cloudy
1:00 PM 59.0 °F 48.2 °F 67% 29.98 in 6.2 mi WNW 13.8 mph - N/A   Scattered Clouds
1:30 PM 59.0 °F 48.2 °F 67% 29.98 in 6.2 mi WNW 12.7 mph - N/A   Scattered Clouds
2:00 PM 60 °F 48 °F 54% 29.99 in - NW 12.7 mph - -  
2:00 PM 59.0 °F 48.2 °F 67% 29.98 in 6.2 mi NW 11.5 mph - N/A   Mostly Cloudy
2:30 PM 57.2 °F 48.2 °F 72% 29.98 in 6.2 mi NW 10.4 mph - N/A   Mostly Cloudy
3:00 PM 60 °F 48 °F 56% 29.98 in - WNW 11.5 mph - -  
3:00 PM 59.0 °F 48.2 °F 67% 29.98 in 6.2 mi WNW 10.4 mph - N/A   Mostly Cloudy
3:30 PM 59.0 °F 48.2 °F 67% 29.95 in 6.2 mi WNW 11.5 mph - N/A   Mostly Cloudy
4:00 PM 60 °F 49 °F 57% 29.98 in 9 mi WNW 12.7 mph - -   Mostly Cloudy
4:00 PM 59.0 °F 50.0 °F 72% 29.98 in 6.2 mi WNW 13.8 mph - N/A   Mostly Cloudy
4:30 PM 57.2 °F 50.0 °F 77% 29.98 in 6.2 mi WNW 9.2 mph - N/A   Mostly Cloudy
5:00 PM 59 °F 51 °F 66% 29.98 in - West 9.2 mph - -  
5:00 PM 57.2 °F 50.0 °F 77% 29.98 in 6.2 mi WNW 9.2 mph - N/A   Mostly Cloudy
5:30 PM 59.0 °F 50.0 °F 72% 29.98 in 6.2 mi NW 4.6 mph - N/A   Scattered Clouds
6:00 PM 60 °F 49 °F 59% 29.98 in - NW 6.9 mph - -  
6:00 PM 59.0 °F 50.0 °F 72% 29.98 in 6.2 mi NW 5.8 mph - N/A   Scattered Clouds
6:30 PM 59.0 °F 50.0 °F 72% 29.98 in 6.2 mi NW 5.8 mph - N/A   Scattered Clouds
7:00 PM 60 °F 49 °F 58% 29.99 in 12 mi WNW 6.9 mph - -   Mostly Cloudy
7:00 PM 59.0 °F 48.2 °F 67% 29.98 in 6.2 mi NW 6.9 mph - N/A   Scattered Clouds
7:30 PM 59.0 °F 50.0 °F 72% 29.98 in 6.2 mi NNW 8.1 mph - N/A   Scattered Clouds
8:00 PM 59 °F 50 °F 63% 30.01 in - West 2.3 mph - -  
8:00 PM 57.2 °F 50.0 °F 77% 30.01 in 6.2 mi Variable 2.3 mph - N/A   Scattered Clouds
8:30 PM 57.2 °F 50.0 °F 77% 30.01 in 6.2 mi Calm Calm - N/A   Scattered Clouds
9:00 PM 58 °F 49 °F 65% 30.02 in - WNW 1.2 mph - -  
9:00 PM 57.2 °F 50.0 °F 77% 30.01 in 6.2 mi Calm Calm - N/A   Scattered Clouds
9:30 PM 57.2 °F 50.0 °F 77% 30.01 in 6.2 mi Calm Calm - N/A   Scattered Clouds
10:00 PM 59 °F 49 °F 62% 30.02 in 12 mi Calm Calm - -   Mostly Cloudy
10:00 PM 57.2 °F 50.0 °F 77% 30.01 in 6.2 mi Calm Calm - N/A   Mostly Cloudy
10:30 PM 57.2 °F 50.0 °F 77% 30.01 in 6.2 mi Calm Calm - N/A   Mostly Cloudy
11:00 PM 59 °F 50 °F 63% 30.02 in - Calm Calm - -  
11:00 PM 57.2 °F 50.0 °F 77% 30.01 in 6.2 mi Calm Calm - N/A   Mostly Cloudy
11:30 PM 59.0 °F 50.0 °F 72% 30.01 in 6.2 mi Calm Calm - N/A   Mostly Cloudy